Ahilyanagari Ex 16326 Schedule, Route, Map - Trivandrum to Indore train
Must See India - Best Travel Guide to India
Home   |   Login   |   Register   |   Contact Us
 

Ahilyanagari Ex (16326)

Print
     

Service Days:

Saturday

Classes:

AC 2 Tier (2A), AC 3 Tier (3A), Sleeper (SL)

Duration:

47h 20m

Station Arrival Departure Stop Time Distance Day
1 Trivandrum (TVC) starts 05:45 am Starts 0 km 1
2 Kollam (QLN) 06:40 am 06:45 am 5 min 65 km 1
3 Kayankulam Jn (KYJ) 07:20 am 07:22 am 2 min 106 km 1
4 Haripad (HAD) 07:49 am 07:50 am 1 min 119 km 1
5 Ambalapuzha (AMPA) 08:14 am 08:15 am 1 min 137 km 1
6 Alleppey (ALLP) 08:37 am 08:40 am 3 min 149 km 1
7 Shertalai (SRTL) 09:04 am 09:05 am 1 min 173 km 1
8 Ernakulam (ERS) 10:00 am 10:10 am 10 min 206 km 1
9 Aluva (AWY) 10:37 am 10:40 am 3 min 225 km 1
10 Angamaly (AFK) 10:49 am 10:50 am 1 min 234 km 1
11 Chalakkudi (CKI) 11:04 am 11:05 am 1 min 250 km 1
12 Irinjalakuda (IJK) 11:14 am 11:15 am 1 min 256 km 1
13 Thrissur (TCR) 11:47 am 11:50 am 3 min 280 km 1
14 Wadakancheri (WKI) 12:09 pm 12:10 pm 1 min 296 km 1
15 Shoranur Jn (SRR) 12:50 pm 01:05 pm 15 min 313 km 1
16 Ottappalam (OTP) 01:19 pm 01:20 pm 1 min 326 km 1
17 Palakkad (PGT) 02:00 pm 02:05 pm 5 min 357 km 1
18 Coimbatore (CBE) 03:20 pm 03:25 pm 5 min 412 km 1
19 Tirupur (TUP) 04:08 pm 04:10 pm 2 min 462 km 1
20 Erode (ED) 05:05 pm 05:15 pm 10 min 512 km 1
21 Salem (SA) 06:05 pm 06:10 pm 5 min 575 km 1
22 Jolarpettai (JTJ) 07:48 pm 07:50 pm 2 min 695 km 1
23 Katpadi (KPD) 08:53 pm 08:55 pm 2 min 778 km 1
24 Chennai (MAS) 11:05 pm 11:25 pm 20 min 908 km 1
25 Guduru (GDR) 01:35 am 01:37 am 2 min 1,045 km 2
26 Nellore (NLR) 02:02 am 02:03 am 1 min 1,083 km 2
27 Ongole (OGL) 03:29 am 03:30 am 1 min 1,199 km 2
28 Chirala (CLX) 04:05 am 04:06 am 1 min 1,249 km 2
29 Tenali (TEL) 04:54 am 04:55 am 1 min 1,306 km 2
30 Vijayawada (BZA) 06:05 am 06:20 am 15 min 1,338 km 2
31 Khammam (KMT) 07:30 am 07:32 am 2 min 1,439 km 2
32 Warangal (WL) 09:20 am 09:22 am 2 min 1,546 km 2
33 Ramgundam (RDM) 10:35 am 10:36 am 1 min 1,649 km 2
34 Mancheral (MCI) 10:47 am 10:48 am 1 min 1,662 km 2
35 Belampalli (BPA) 11:09 am 11:10 am 1 min 1,682 km 2
36 Sirpur Kagazngr (SKZR) 11:36 am 11:37 am 1 min 1,721 km 2
37 Balharshah (BPQ) 01:05 pm 01:15 pm 10 min 1,790 km 2
38 Chandrapur (CD) 01:34 pm 01:35 pm 1 min 1,804 km 2
39 Hinganghat (HGT) 02:34 pm 02:35 pm 1 min 1,888 km 2
40 Sevagram (SEGM) 03:54 pm 03:55 pm 1 min 1,925 km 2
41 Nagpur (NGP) 05:00 pm 05:10 pm 10 min 2,001 km 2
42 Pandhurna (PAR) 06:24 pm 06:25 pm 1 min 2,105 km 2
43 Amla Jn (AMLA) 07:31 pm 07:33 pm 2 min 2,169 km 2
44 Betul (BZU) 07:49 pm 07:50 pm 1 min 2,192 km 2
45 Ghoradongri (GDYA) 08:29 pm 08:30 pm 1 min 2,228 km 2
46 Itarsi (ET) 10:25 pm 10:30 pm 5 min 2,298 km 2
47 Bhopal (BPL) 12:10 am 12:25 am 15 min 2,390 km 3
48 Shujalpur (SJP) 01:27 am 01:28 am 1 min 2,470 km 3
49 Ujjain (UJN) 03:10 am 03:25 am 15 min 2,574 km 3
50 Dewas (DWX) 04:12 am 04:14 am 2 min 2,614 km 3
51 Indore (INDB) 05:05 am ends Ends 2,653 km 3

 

 Click to view map

You can drag the map with your mouse, and double-click to zoom.

People who viewed this page also viewed

 
Alibag honeymoon package from Bangalore
 
Corbett National Park honeymoon packages from Bangalore
 
Gulmarg packages from Kolkata
 
Hotels in Pune
 
Kalimpong packages from Delhi
 
Kasauli honeymoon packages from Mumbai
 
Madhya Pradesh packages from Pune
 
Manipur packages from Chennai
 
Tirupati package tour
 
Wayanad packages from Pune
 
darjeeling gangtok tour package
 
kerala tour packages from kolkata
 

Destinations

 
 

More

 
debug_temp: train_route : train:1704:Ahilyanagari Ex:Train